Starlink 33865

operational
NORAD ID: 64247 Int'l Des: 2025-119 Owner: SPXS Country: US Constellation: starlink
LEOCIRCULAR

About Starlink 33865

Description loading...

Live Position

Loading 3D Globe...

Upcoming Passes

Altitude History

Altitude vs Time

uPlot chart will show altitude changes over time

Two-Line Element Set

1 64247U 25119Q 25260.22538562 .00020647 00000-0 75744-3 0 9998
2 64247 42.9954 206.3861 0000425 229.9726 130.1088 15.27591413 17616
Epoch: Sep 17, 2025 • Age: 43 hours

Current Status

Altitude 482.6 km
Velocity 7.63 km/s
Sub-Earth Point -1.24°S, 10.82°E
Launch Date Jun 3, 2025
Age 0.2 years
Type internet

Technical Details

Classification Payload
Mass 575.00 kg
Dry Mass 530.00 kg
Total Mass 575.00 kg
Length 0.30 m
Diameter 4.10 m
Span 29.00 m
Shape Box + pan
Manufacturer SPXS
Bus Type Starlink V2MO
Phase Status In Orbit
Owner/State SPXS/US

Large Constellations

Loading constellations...